Spencer, IA

2:33 PM CST on February 11, 2016 (GMT -0600)
Spencer Municipal

Weather History for KSPW - September, 2012

Change the Weather History Date:

Tuesday, September 11, 2012

  Actual Average Record
Temperature  
Mean Temperature 76 °F -  
Max Temperature 93 °F 77 °F 93 °F (1998)
Min Temperature 62 °F 52 °F 37 °F (2007)
Cooling Degree Days 12    
Growing Degree Days 26 (Base 50)    
Moisture  
Dew Point 50 °F    
Average Humidity 42    
Maximum Humidity 70    
Minimum Humidity 21    
Precipitation  
Precipitation 0.00 in - - ()
Sea Level Pressure  
Sea Level Pressure 29.81 in    
Wind  
Wind Speed 14 mph (South)    
Max Wind Speed 26 mph    
Max Gust Speed 38 mph    
Visibility 10 miles    
Events      
Averages and records for this station are not official NWS values.
T = Trace of Precipitation, MM = Missing Value Source: NWS Daily Summary

Daily Weather History Graph

Daily Weather History Graph

Search for Another Location

Airport or City:

Trip Planner

Search our weather history database for the weather conditions in past years. The results will help you decide how hot, cold, wet, or windy it might be!

Date:

Astronomy

Sep. 11, 2012 Rise Set
Actual Time 6:56 AM CDT 7:37 PM CDT
Civil Twilight 6:27 AM CDT 8:05 PM CDT
Nautical Twilight 5:53 AM CDT 8:39 PM CDT
Astronomical Twilight 5:18 AM CDT 9:14 PM CDT
Moon 2:08 AM CDT 4:53 PM CDT
Length of Visible Light 13h 37m
Length of Day
12h 40m
Waning Crescent, 21% of the Moon is Illuminated
Sep 11
Waning Crescent
Sep 15
New
Sep 22
First Quarter
Sep 29
Full
Oct 8
Last Quarter

Hourly Weather History & Observations

Time (CDT) Temp. Dew Point Humidity Pressure Visibility Wind Dir Wind Speed Gust Speed Precip Events Conditions
12:53 AM 64.9 °F 51.1 °F 61% 29.84 in 10.0 mi South 11.5 mph - N/A   Clear
1:53 AM 63.0 °F 51.1 °F 65% 29.83 in 10.0 mi South 9.2 mph - N/A   Clear
2:53 AM 62.1 °F 52.0 °F 70% 29.83 in 10.0 mi South 9.2 mph - N/A   Clear
3:53 AM 62.1 °F 52.0 °F 70% 29.83 in 10.0 mi South 8.1 mph - N/A   Clear
4:53 AM 64.0 °F 52.0 °F 65% 29.83 in 10.0 mi South 10.4 mph - N/A   Clear
5:53 AM 63.0 °F 51.1 °F 65% 29.83 in 10.0 mi South 9.2 mph - N/A   Clear
6:53 AM 63.0 °F 51.1 °F 65% 29.83 in 10.0 mi South 11.5 mph - N/A   Clear
7:53 AM 64.9 °F 51.1 °F 61% 29.84 in 10.0 mi South 10.4 mph - N/A   Clear
8:53 AM 71.1 °F 50.0 °F 47% 29.82 in 10.0 mi South 17.3 mph 26.5 mph N/A   Clear
9:53 AM 77.0 °F 48.0 °F 36% 29.83 in 10.0 mi SSW 17.3 mph 32.2 mph N/A   Clear
10:53 AM 82.0 °F 48.0 °F 30% 29.81 in 10.0 mi SSW 20.7 mph 32.2 mph N/A   Clear
11:53 AM 86.0 °F 46.9 °F 26% 29.80 in 10.0 mi South 24.2 mph 33.4 mph N/A   Clear
12:53 PM 90.0 °F 46.0 °F 22% 29.79 in 10.0 mi SSW 26.5 mph 38.0 mph N/A   Clear
1:53 PM 91.9 °F 46.9 °F 21% 29.78 in 10.0 mi SSW 25.3 mph 38.0 mph N/A   Clear
2:53 PM 91.9 °F 48.0 °F 22% 29.77 in 10.0 mi South 26.5 mph 34.5 mph N/A   Clear
3:53 PM 90.0 °F 48.0 °F 24% 29.76 in 10.0 mi South 24.2 mph 34.5 mph N/A   Clear
4:53 PM 91.9 °F 48.9 °F 23% 29.75 in 10.0 mi South 25.3 mph 38.0 mph N/A   Clear
5:53 PM 91.0 °F 48.9 °F 23% 29.76 in 10.0 mi South 24.2 mph 33.4 mph N/A   Clear
6:53 PM 87.1 °F 50.0 °F 28% 29.78 in 10.0 mi South 15.0 mph 24.2 mph N/A   Clear
7:53 PM 80.1 °F 52.0 °F 38% 29.79 in 10.0 mi South 10.4 mph - N/A   Clear
8:53 PM 79.0 °F 52.0 °F 39% 29.81 in 10.0 mi South 15.0 mph - N/A   Clear
9:53 PM 78.1 °F 50.0 °F 37% 29.83 in 10.0 mi South 15.0 mph 23.0 mph N/A   Clear
10:53 PM 77.0 °F 48.9 °F 37% 29.84 in 10.0 mi South 13.8 mph - N/A   Clear
11:53 PM 75.0 °F 50.0 °F 41% 29.86 in 10.0 mi South 11.5 mph - N/A   Clear